Terug naar catalogus

ECHO 2 DEB

METAL OBJ

ActiefPO
NORAD 743·DEBRIS·🇺🇸 United States

Gelanceerd Jan 25, 1964 vanaf Vandenberg Space Force Base

Loading…

Volgende Passages (komende 24 uur)

TLE

VersSource: Space-Track

Epoch: Sep 14, 2026, 13:05 UTC

1 00743U 64004D   26257.54535135  .00000059  00000-0  97482-4 0  9999
2 00743  81.5176  92.0567 0174474 133.6495 256.7876 13.26895520 29970

Volg ECHO 2 DEB in realtime met AllMySat

Download on the App Store